|
Quadrantids
(
1 2 3 4 5
)
(Preview)
|
Events
|
44
|
14347
|
|
|
On January. 04, 2006, sky watchers somewhere will see a dazzling display of Quadrantid meteors.
In 2006 the Moon will be a Waxing Crescent so there will be no interference. The best place and time to watch is after 3:00 am local time on Wednesday, January 4th in Asian.
North American observers m...
|
|
|
|
|
|
Comet C/1490 Y1
(Preview)
|
Solar System
|
0
|
1533
|
|
|
Title: Orbital Elements of Comet C/1490 Y1 and the Quadrantid shower Authors: Ki-Won Lee, Hong-Jin Yang, Myeong-Gu Park The Quadrantid shower, one of the most intense showers, has been observed at the beginning of January each year. However, the origin of the meteors is still unknown. It was Haseg...
|
|
|
|
|
|
Asterod 2003 EH1
(Preview)
|
Asteroids
|
0
|
1847
|
|
|
Orbital elements: 2003 EH1 Epoch 2003 Mar. 2.0 TT = JDT 2452700.5 MPC M 0.37663 (2000.0) P Q n 0.27413968 Peri. 175.38955 -0.22050074 -0.36293089 a 2.3468650 Node 284.41597 +0.86235221 +0.36118355 e 0.5007873 Incl. 69.19326 +0.45577197 -0.85896892 P 3.60 H 16.8 G 0.15 From 17 observations 2003 M...
|
|
|
|
|